Theta_e
321 322 322 322 322 321 320 320 325 326 325 327 325 327 325 323 325 327 330 329 329 330 328 328 326 327 328 328 329 330 330 331 332 332 333 328 324 325 327 328 330 333 335 336 336 336 335 335 334 331 330 330 330 331 333 334 334 334 335 335 333 329 325 321 316 313 315 315 313 311 310 313 314 314 313 313 313 312 313 313 313 313 313 316 317 317 315 313 312 312 312 312 312 312 312 311 312
320 322 322 321 322 322 320 321 328 330 326 324 324 326 323 321 324 331 334 331 332 331 330 328 326 329 330 330 330 330 331 332 330 330 329 323 322 324 324 325 326 329 334 335 335 335 334 334 333 331 331 330 329 328 329 331 331 331 331 330 328 324 319 316 314 315 320 319 316 312 311 315 314 313 313 312 313 313 313 313 313 312 313 316 315 314 312 312 312 312 312 312 312 312 312 312 312
320 321 321 322 322 320 322 322 326 330 326 325 328 324 322 324 328 333 331 329 331 331 330 328 328 330 331 332 331 331 332 333 332 329 324 321 320 321 321 321 324 326 331 335 334 333 334 333 332 331 331 331 329 327 327 328 329 328 327 326 323 319 314 314 315 318 322 322 319 315 311 315 315 315 315 313 313 313 313 312 313 313 312 314 313 312 312 312 312 312 312 312 312 311 311 311 312
319 321 321 322 322 321 329 331 329 330 326 325 328 325 325 329 329 328 327 330 331 331 331 330 331 331 331 333 333 333 332 333 333 330 322 321 320 320 318 317 323 323 329 334 331 332 332 332 332 331 332 331 329 326 325 325 326 326 326 324 321 317 312 315 319 322 327 326 321 316 312 313 314 315 317 314 313 313 313 313 312 313 312 313 312 312 312 312 312 312 312 312 311 311 311 311 312
319 321 321 322 322 321 328 328 327 328 324 326 327 325 329 331 329 324 328 333 331 331 332 333 334 333 333 333 333 333 333 334 333 330 323 322 322 319 315 314 319 320 327 331 329 331 331 332 332 331 332 331 329 324 321 321 322 323 322 321 320 316 311 315 320 325 330 329 324 319 315 314 313 314 316 313 313 313 312 313 312 312 312 312 312 312 312 312 312 312 311 311 311 311 311 311 311
319 321 321 321 321 318 322 321 322 327 325 327 325 327 329 326 327 326 330 334 330 331 331 333 335 334 334 333 333 331 333 334 332 329 323 323 322 317 312 312 315 318 326 327 327 330 331 334 332 332 332 331 327 320 317 316 318 319 319 319 318 314 312 314 318 325 330 331 328 322 319 316 314 313 314 313 312 313 312 313 312 312 312 312 312 312 312 312 311 311 311 311 311 311 311 311 311
319 321 321 322 321 319 325 324 327 329 321 322 324 329 328 321 325 330 330 332 331 329 330 333 333 334 335 333 333 332 334 334 331 327 325 324 321 316 312 312 313 316 323 323 325 329 331 334 333 333 332 330 324 316 313 313 315 316 316 316 314 312 314 314 317 325 329 332 330 325 323 317 314 314 312 313 312 313 313 312 312 312 312 312 312 312 312 312 311 311 311 311 311 311 311 311 311
319 321 320 324 327 325 330 327 328 328 317 316 319 324 324 322 328 330 329 330 330 328 330 333 332 334 335 333 333 332 333 333 331 327 327 325 321 320 313 311 311 314 320 320 324 327 330 334 334 334 332 330 322 313 311 312 314 314 315 313 311 312 315 316 318 325 329 331 330 327 326 318 313 313 312 313 313 313 313 312 312 312 312 312 312 311 311 311 311 311 311 311 311 311 311 312 312
320 321 320 324 327 327 334 329 323 323 319 318 317 320 323 325 329 329 327 326 327 329 331 333 331 332 333 332 333 332 331 333 332 327 327 326 323 323 316 311 310 312 318 319 322 325 329 333 334 333 333 330 321 311 310 311 312 313 312 311 314 316 317 319 320 324 328 329 329 327 325 320 313 313 313 313 313 313 312 312 312 312 312 312 311 311 311 311 311 311 311 311 311 311 311 312 312
321 322 320 324 328 325 330 327 323 322 321 318 317 321 324 326 328 327 326 324 326 329 331 332 331 330 332 332 332 332 331 332 331 328 327 328 325 326 321 315 310 310 316 318 320 323 327 331 332 333 333 330 319 310 309 310 311 311 311 312 317 318 319 322 320 321 324 324 326 326 323 319 315 312 313 313 313 313 312 312 312 312 312 311 311 311 311 311 311 311 311 311 311 311 311 312 312
323 321 320 326 330 326 327 329 330 329 323 318 317 321 325 326 326 324 323 325 326 330 332 332 331 329 331 331 331 331 330 331 331 329 327 328 328 328 324 318 313 310 313 317 317 319 324 329 332 332 332 329 318 310 309 309 310 310 312 315 317 317 319 320 319 321 322 322 326 328 324 319 316 313 313 312 313 313 312 312 312 312 311 311 311 311 311 311 311 311 311 311 311 312 311 312 312
324 323 328 331 330 328 328 331 332 333 330 325 323 323 325 326 325 323 322 326 328 330 331 332 331 330 332 331 331 331 330 330 331 330 328 328 329 327 323 318 314 310 312 315 316 317 321 328 331 331 331 328 318 310 309 308 309 309 312 316 317 317 317 317 317 318 320 321 325 327 325 322 317 313 313 313 313 313 312 312 312 312 311 311 311 311 311 311 311 311 311 311 311 312 312 312 312
324 326 333 330 328 329 326 328 327 329 332 329 323 322 326 325 325 324 323 326 328 330 331 331 331 330 334 333 330 331 330 330 331 331 328 328 329 327 322 317 313 311 313 315 316 315 318 325 330 331 330 327 319 312 309 309 309 310 312 313 316 316 314 314 315 315 315 318 321 322 322 322 318 314 313 313 313 313 313 312 312 312 311 311 311 311 311 311 311 311 311 311 311 311 312 312 312
323 323 331 329 326 328 327 325 323 324 330 328 321 321 326 325 326 325 323 327 328 329 330 330 330 330 333 332 330 331 330 329 330 330 329 328 329 327 323 319 314 311 313 315 317 316 315 321 328 330 330 327 322 315 311 309 308 310 312 312 312 313 311 311 312 313 314 315 318 318 319 319 317 314 313 313 312 312 312 312 312 312 311 311 311 311 311 311 311 311 311 311 311 311 312 312 312
322 321 329 332 325 325 326 323 322 326 330 326 320 321 325 324 325 323 322 327 328 328 328 329 331 330 330 331 331 330 330 330 330 330 330 329 328 327 326 323 317 313 316 317 319 318 313 317 325 330 329 327 323 317 313 309 308 309 310 311 310 310 309 310 310 311 313 315 318 318 317 316 315 314 313 313 312 312 312 312 312 312 311 311 311 311 311 311 311 311 311 311 311 311 312 312 312
322 321 328 332 327 326 324 321 322 326 327 321 317 320 324 322 322 322 321 324 326 326 327 329 331 330 329 330 330 330 331 330 330 330 330 330 329 328 327 325 321 319 321 321 321 319 314 316 320 326 328 326 321 317 314 310 308 308 308 309 309 309 309 309 309 310 311 313 316 316 316 315 314 314 313 313 312 312 312 312 312 311 312 311 312 312 311 311 311 311 311 311 311 312 312 312 313
320 321 328 330 327 326 324 322 322 325 325 318 315 318 322 321 319 321 322 322 324 325 326 328 330 329 328 328 329 330 331 331 330 330 331 331 330 329 329 328 325 322 323 322 322 319 315 318 317 320 326 325 321 315 312 311 308 308 308 308 308 309 309 309 309 309 310 311 313 314 314 314 314 314 313 313 312 312 312 312 312 312 312 311 312 312 312 312 311 311 311 311 312 312 312 313 314
320 326 328 326 327 326 324 323 318 320 324 317 315 318 321 322 319 320 323 323 324 325 326 327 329 329 328 328 328 329 331 331 331 331 331 331 331 331 329 329 327 324 323 321 324 322 316 319 318 317 323 325 322 316 311 310 308 308 308 308 309 308 309 309 309 309 309 310 311 312 312 313 313 313 313 313 312 312 312 312 312 312 312 312 312 312 312 312 312 312 312 312 312 313 313 313 314
321 328 327 324 329 325 320 320 315 316 320 316 316 319 320 322 320 321 324 324 324 328 329 328 329 329 329 328 328 329 331 332 332 331 331 331 331 331 330 330 329 327 325 321 326 329 319 317 320 317 320 323 321 317 313 311 309 309 308 308 308 309 309 309 309 309 309 309 310 312 312 312 312 312 313 313 312 312 312 312 312 312 312 311 312 312 312 312 312 312 312 312 313 313 314 314 314
320 324 327 327 326 320 317 318 317 317 317 315 316 318 319 321 320 321 324 324 325 327 328 327 328 327 328 329 328 328 329 331 332 331 330 331 330 331 331 331 330 329 328 322 325 331 324 317 321 318 318 321 319 316 314 312 309 309 308 308 308 308 309 309 309 309 309 309 309 311 312 312 312 312 312 312 312 312 312 312 312 312 312 311 312 312 312 312 312 312 312 313 313 314 314 315 315
321 322 328 328 321 320 320 318 318 317 316 316 317 317 318 319 320 321 322 325 326 325 324 324 324 323 325 328 328 327 327 329 331 332 331 331 330 331 331 331 332 330 330 326 324 328 323 317 320 319 318 318 317 317 315 313 310 309 309 308 308 308 309 309 309 309 309 309 309 310 311 312 312 312 312 312 312 312 312 312 312 312 312 311 312 312 312 312 312 312 312 313 314 315 315 315 315
322 321 323 322 318 321 320 317 316 315 315 316 316 318 320 319 319 321 322 325 326 323 322 322 321 321 323 324 325 324 324 327 329 331 330 331 331 331 331 331 332 331 331 329 325 324 319 318 321 319 319 318 316 316 315 314 311 309 309 308 308 308 308 309 309 309 308 309 309 309 310 311 312 312 312 312 312 312 312 312 312 312 312 312 312 312 312 313 312 313 313 314 314 315 315 315 316
324 323 319 319 319 320 318 315 315 314 315 316 316 318 318 318 319 320 321 323 322 321 321 321 320 321 322 322 322 322 323 325 325 326 326 327 329 330 331 331 331 332 331 330 327 324 320 320 322 320 319 319 317 315 315 314 312 310 309 308 308 308 308 309 309 309 308 309 309 309 309 310 311 311 312 312 312 312 312 312 312 312 312 312 312 312 312 313 313 313 314 314 315 315 316 316 316
324 326 320 319 318 317 316 314 314 314 314 316 317 318 317 318 320 318 320 322 321 321 320 319 319 320 321 322 321 320 320 321 321 322 323 325 327 329 330 330 331 331 331 331 329 325 322 321 321 320 319 319 318 316 315 315 313 312 310 308 308 308 308 308 309 309 308 308 308 309 309 309 310 311 312 312 312 312 312 311 311 311 311 312 312 312 312 313 313 314 314 314 315 315 316 316 316
323 326 322 317 316 315 314 313 314 314 314 316 316 316 317 319 318 315 318 322 321 321 321 320 319 319 320 321 320 319 319 320 321 322 324 325 327 329 330 331 331 331 330 330 330 327 323 321 321 320 320 320 319 317 316 314 313 312 310 309 308 308 308 308 308 309 309 308 308 309 309 308 309 310 311 311 312 312 312 311 311 311 311 311 311 312 312 313 314 314 315 315 315 315 316 316 317
322 323 321 317 316 315 313 313 314 314 314 315 316 316 316 317 316 316 319 321 320 320 321 320 320 319 319 319 319 319 319 320 321 322 324 325 327 329 330 330 331 331 330 330 330 328 324 322 321 320 321 321 320 319 317 314 312 311 310 309 308 308 308 308 308 308 309 309 309 309 308 308 308 309 310 310 311 312 312 312 311 311 311 311 312 312 313 314 314 315 315 315 315 315 316 316 317
324 322 321 318 316 313 312 313 314 314 314 315 316 317 315 314 315 318 320 320 320 319 320 320 320 319 319 319 319 319 319 319 320 322 324 325 326 327 328 329 330 330 330 330 330 329 326 323 321 321 321 321 320 319 317 315 313 311 310 309 308 308 308 308 307 308 308 309 309 308 308 308 308 308 309 309 310 311 312 312 312 312 311 312 312 313 313 314 315 315 315 315 315 316 316 317 317
324 321 322 321 318 317 314 313 314 314 315 315 316 317 315 315 315 318 319 319 320 319 319 319 319 320 319 318 319 319 319 319 320 322 323 323 322 322 324 327 329 329 330 330 329 329 326 323 321 321 321 321 320 319 317 315 313 311 310 309 308 308 308 308 308 308 308 308 308 308 308 308 308 308 308 309 309 310 311 312 312 312 312 312 312 313 314 314 315 315 316 315 315 316 317 317 318
323 322 326 325 322 325 319 314 315 314 315 316 316 317 316 316 316 317 318 318 319 318 318 318 318 318 318 318 318 319 318 319 320 321 321 320 319 318 320 323 326 329 329 329 329 329 327 323 321 321 321 320 320 319 317 315 312 311 310 309 308 308 308 308 308 308 308 307 308 308 308 308 308 308 308 308 308 309 310 311 311 312 313 313 313 313 314 314 315 315 315 315 316 316 317 318 318
325 324 329 329 326 330 325 317 316 314 315 316 316 318 319 318 316 317 318 318 318 318 318 318 317 317 317 316 317 318 318 318 319 319 319 319 319 319 318 319 323 326 328 329 329 328 326 323 322 321 321 320 320 319 318 317 315 311 309 308 308 308 308 308 308 308 308 308 308 308 308 308 308 308 308 308 308 308 309 310 310 311 312 313 313 313 314 314 315 315 315 315 316 317 317 318 318
329 325 328 331 331 335 328 318 316 317 316 316 317 319 321 322 319 317 318 318 317 318 318 318 318 318 318 317 317 317 317 318 318 318 318 319 319 320 319 318 319 322 326 328 328 328 327 325 322 322 321 320 320 319 319 319 318 317 314 312 310 308 308 307 308 307 307 308 308 308 308 308 308 308 308 308 308 308 308 309 309 311 312 313 313 313 314 314 315 315 315 316 316 317 318 318 318
331 330 330 330 332 337 331 318 316 321 319 315 319 321 323 326 323 319 319 317 318 318 318 318 318 318 319 319 318 318 317 317 317 317 317 318 319 320 319 319 318 318 322 326 328 328 328 326 323 322 321 321 320 320 320 319 320 320 319 318 315 313 311 309 308 307 308 308 308 308 308 308 308 308 308 308 308 308 308 308 309 311 312 313 313 314 314 315 315 315 315 316 316 317 318 318 318
329 331 333 331 331 334 332 322 316 319 320 316 319 323 325 326 321 320 321 319 318 317 318 318 318 319 319 320 320 320 319 317 317 317 317 317 317 318 319 319 318 317 317 321 325 327 327 326 324 323 321 321 320 320 320 319 320 320 320 320 319 318 316 313 310 309 309 309 309 308 308 308 308 308 308 308 308 308 308 308 308 310 312 313 313 314 314 315 315 315 315 316 317 317 318 318 318
329 330 332 331 332 332 332 331 320 317 320 319 320 322 324 324 319 319 320 320 321 319 319 320 320 320 319 320 320 320 320 319 319 318 318 317 317 317 318 319 319 318 316 317 320 325 326 326 325 324 322 321 321 320 320 319 319 320 319 319 319 320 319 317 314 311 310 310 309 310 309 309 308 308 308 308 308 308 308 308 308 309 311 313 313 314 314 315 315 315 315 316 317 318 318 318 318
329 329 331 330 332 331 331 334 324 318 322 322 322 321 321 323 320 319 320 320 321 321 322 323 323 323 322 322 321 321 321 320 320 320 318 317 317 317 318 318 319 318 317 316 316 320 323 326 326 325 323 322 321 321 320 319 319 319 320 319 319 319 319 318 316 314 313 311 311 310 310 310 309 309 308 308 308 308 309 308 308 309 310 312 313 314 314 315 315 315 316 317 318 319 319 318 318
329 328 331 331 334 332 330 332 323 318 323 323 323 323 321 322 321 320 321 320 319 320 321 322 323 323 323 323 323 324 323 323 323 321 319 318 317 318 318 318 318 318 318 317 316 316 318 323 325 325 325 324 323 322 321 320 320 320 321 321 320 320 320 319 317 316 315 314 313 312 312 311 311 310 309 309 309 309 309 309 309 309 309 311 312 313 314 314 315 316 317 318 318 319 318 318 318
328 328 331 332 334 333 330 330 322 317 324 325 323 324 323 323 322 321 321 320 318 318 318 319 321 321 322 323 324 324 324 325 325 324 322 321 320 320 319 318 318 318 318 318 317 315 314 318 322 325 325 325 324 324 323 322 322 322 323 323 323 322 321 319 318 317 317 316 316 315 314 313 313 312 311 310 310 309 309 310 309 309 309 310 311 312 313 314 315 316 317 318 318 318 318 318 318
328 329 332 332 333 333 328 326 321 316 323 328 325 323 323 322 322 320 319 320 319 318 318 319 320 321 322 322 323 325 325 324 324 324 323 323 323 323 322 320 319 318 318 318 318 316 314 314 316 320 323 324 325 325 325 324 324 324 324 324 324 323 321 319 318 318 318 317 317 317 316 316 315 315 313 312 311 311 311 311 311 311 311 311 311 312 313 315 316 317 318 318 318 319 318 318 318
328 329 331 333 330 330 327 322 318 317 323 329 324 322 322 321 321 320 318 319 321 320 320 321 321 321 321 322 323 325 326 326 324 324 325 325 325 324 324 323 322 320 319 318 317 317 316 315 314 315 317 320 322 323 324 324 325 325 325 324 323 323 321 320 320 320 320 320 319 318 318 317 317 316 316 315 314 313 313 312 312 312 312 312 313 313 314 316 317 318 318 319 319 319 318 318 318
327 328 329 332 329 330 332 324 316 317 321 322 320 320 321 321 322 320 317 318 320 321 321 321 322 322 322 324 324 325 326 327 326 325 326 326 326 324 323 324 324 323 321 319 318 318 317 315 314 313 314 315 317 319 321 322 323 323 324 324 323 323 322 322 321 321 320 320 320 320 319 318 318 317 317 317 316 316 315 315 314 314 314 314 315 315 316 316 317 318 319 319 319 319 318 318 318
326 327 328 332 330 329 331 325 318 318 319 317 318 323 325 325 327 324 320 317 317 319 319 319 320 321 323 323 323 325 325 326 326 326 326 326 326 325 323 323 324 324 323 321 320 318 317 315 315 314 313 313 314 315 317 319 321 322 322 323 323 323 322 321 320 319 319 319 318 319 319 319 318 318 318 318 318 317 317 317 316 316 316 316 316 316 316 317 317 318 319 319 319 319 318 318 317
327 327 327 331 331 327 324 323 324 327 327 320 320 328 332 333 333 329 325 322 319 317 315 317 319 320 321 320 323 325 325 326 326 326 326 325 326 326 323 322 323 324 324 323 322 320 319 317 316 315 314 314 313 313 314 316 317 318 320 320 320 320 320 318 317 316 316 316 317 317 318 318 318 319 319 319 319 318 318 318 317 317 317 317 317 317 317 317 317 318 318 318 318 318 318 317 317
328 327 328 330 329 326 324 325 330 333 332 322 318 327 334 331 331 331 330 329 326 320 315 315 317 318 318 318 321 324 325 326 326 326 326 325 326 326 325 323 322 323 324 323 322 321 320 319 317 316 315 314 314 313 313 314 315 315 316 316 316 317 316 315 314 315 315 315 316 316 316 317 318 318 319 319 320 320 319 319 319 319 318 318 318 318 318 318 318 317 317 317 317 317 317 318 319
328 325 328 330 327 327 326 328 331 331 329 322 317 323 329 327 327 329 329 331 331 325 320 317 315 317 319 319 321 323 325 327 327 326 326 325 326 326 326 325 323 323 322 322 323 322 321 320 318 316 316 315 315 315 314 314 314 314 314 314 314 314 314 313 314 314 315 315 316 316 316 316 316 317 317 318 319 319 319 320 320 320 320 320 319 319 320 319 320 319 319 319 319 319 319 320 321
327 322 325 328 327 328 328 328 330 326 328 328 320 320 328 329 326 325 323 327 329 327 325 321 317 317 319 320 322 323 324 326 326 327 327 326 326 326 327 326 325 323 320 320 322 323 322 320 318 317 316 316 315 315 315 314 314 314 314 314 314 314 313 313 314 314 315 315 315 315 315 315 315 316 316 316 316 317 317 318 318 319 319 319 319 319 319 320 320 320 320 321 321 321 322 322 323
323 319 322 324 325 326 327 329 330 325 328 333 326 321 328 332 329 326 323 326 327 325 324 322 318 319 321 321 322 322 322 323 324 325 326 326 326 326 326 326 326 325 322 320 320 320 320 319 318 317 317 317 316 315 315 315 315 314 314 314 314 314 314 314 315 315 314 314 314 314 314 314 314 315 315 315 315 316 316 316 317 317 317 318 318 318 318 318 318 318 319 320 320 321 322 322 322
319 321 324 324 326 328 328 329 328 328 330 332 328 323 327 332 332 329 326 326 328 326 326 325 320 320 321 321 321 321 321 321 322 323 324 325 326 325 325 325 325 325 324 323 320 318 318 318 317 317 317 317 316 316 316 315 315 315 314 314 314 314 314 314 314 314 314 314 314 313 313 314 314 314 314 315 315 315 316 316 317 317 318 319 318 319 319 319 318 318 318 318 319 319 320 320 321
321 327 329 327 328 328 329 326 325 329 333 330 326 322 324 330 333 332 329 328 329 327 327 330 324 319 320 320 320 320 320 320 321 322 322 323 324 324 323 323 324 324 325 325 323 321 319 318 317 317 317 317 317 317 316 316 315 315 315 314 314 314 314 314 313 313 313 313 313 313 313 314 314 314 315 315 315 316 316 317 318 319 319 319 319 319 319 319 319 318 318 319 318 318 318 319 320
324 328 328 329 330 329 330 328 327 331 330 324 322 321 324 328 328 329 329 327 328 323 320 323 322 319 320 321 320 320 320 321 320 321 322 322 323 323 322 321 323 324 324 325 325 324 323 321 320 318 318 317 317 317 316 316 315 315 315 314 314 314 314 314 313 313 313 313 313 314 313 314 314 314 314 314 315 316 317 318 319 319 319 320 320 320 320 320 320 320 320 319 319 319 319 319 320
325 326 327 329 330 329 330 329 328 329 327 320 319 322 326 328 326 325 326 325 324 320 317 319 319 319 321 321 321 321 321 321 321 321 321 322 322 322 321 321 321 322 323 324 324 325 324 324 323 321 320 318 318 318 317 316 316 315 316 316 316 315 315 314 314 314 314 314 313 313 313 313 314 314 314 315 315 317 318 318 319 319 319 320 320 320 320 321 321 321 321 321 321 321 320 321 321
326 326 327 328 329 331 330 329 330 330 327 321 320 325 329 331 329 324 320 319 319 319 319 318 318 319 320 320 320 321 320 320 321 320 320 321 321 321 321 321 321 321 321 321 322 323 324 324 325 324 322 320 319 318 318 317 316 316 317 317 316 316 315 315 315 314 315 315 314 314 313 313 313 314 314 315 316 317 318 319 320 320 320 320 321 321 321 322 322 322 322 322 322 321 321 321 321
326 328 329 328 329 332 329 327 328 330 330 324 322 326 328 329 329 322 318 318 317 317 317 316 317 318 318 318 319 319 319 319 319 320 320 321 321 321 320 319 320 320 321 321 321 321 322 323 323 324 324 322 320 319 318 317 317 317 318 317 316 316 315 315 315 315 315 315 315 314 314 314 314 314 315 315 316 318 318 319 320 320 321 322 322 322 322 322 322 322 322 322 322 322 321 321 323
327 328 329 326 327 332 330 324 322 326 331 328 324 327 328 329 328 323 322 325 322 321 319 314 316 318 317 318 319 319 320 319 319 320 321 321 321 320 319 319 319 320 320 320 320 320 321 322 322 323 324 323 321 320 319 318 318 319 319 318 317 316 316 315 315 315 315 316 316 316 315 315 315 315 315 315 317 318 319 319 319 320 321 322 322 322 322 321 321 321 320 320 321 321 320 322 325
327 328 326 324 325 330 332 329 327 327 330 329 325 327 330 332 331 326 326 326 325 327 323 314 315 318 318 319 321 320 319 319 318 319 320 320 320 319 319 319 319 320 320 320 320 320 321 321 321 321 322 322 321 320 319 319 319 320 319 318 317 317 316 316 315 315 316 316 316 316 316 316 315 315 316 316 317 318 318 318 318 319 320 321 321 321 321 320 320 321 320 321 323 321 319 321 322
324 325 323 326 329 328 329 330 331 328 329 331 327 324 327 329 328 327 329 328 328 329 325 320 319 317 316 318 319 319 318 318 318 319 319 319 319 319 319 319 319 320 320 320 321 321 321 321 321 321 321 321 321 320 319 319 320 320 319 318 317 317 317 316 316 316 316 316 316 317 317 316 316 316 316 317 317 317 317 316 317 318 318 319 319 320 321 320 320 320 319 321 323 321 320 322 323
322 322 323 327 330 327 328 330 332 330 329 330 328 325 326 327 324 326 328 328 328 327 327 327 322 316 316 319 319 318 318 318 318 319 319 318 318 318 318 318 319 319 320 321 321 321 321 321 320 320 321 321 321 320 319 319 319 319 318 317 317 317 317 316 316 316 316 317 317 317 317 316 316 317 317 317 317 316 316 315 316 316 315 316 317 318 320 320 320 320 318 318 321 322 321 322 322
323 324 325 326 326 325 329 330 330 330 328 329 330 328 328 326 323 324 325 325 326 327 329 329 321 316 318 319 318 318 318 317 318 318 318 318 317 318 318 318 319 319 319 319 320 320 320 320 320 320 320 320 321 320 319 319 318 318 318 318 318 318 317 316 316 316 316 317 317 317 317 316 316 316 316 316 316 315 315 315 314 314 313 314 315 316 318 318 318 318 317 316 320 323 323 321 319
324 325 324 325 325 326 329 328 326 326 326 329 330 327 326 327 322 320 322 325 325 322 323 323 318 315 316 317 317 318 317 318 318 317 318 319 318 318 318 318 318 318 318 318 318 319 319 319 320 320 320 321 320 320 319 319 319 319 319 319 319 318 317 316 316 316 317 317 317 317 317 316 316 316 316 316 315 314 313 313 312 311 311 312 313 313 314 315 315 315 315 315 317 318 319 321 320
Wind_Speed
4 4 6 8 10 7 4 2 1 2 3 1 1 1 2 1 0 1 2 2 1 4 7 7 13 19 8 3 7 2 3 5 4 3 1 6 13 16 18 17 14 14 14 14 15 14 13 11 10 10 9 9 10 10 10 10 9 9 8 7 6 5 3 2 2 3 6 10 12 12 12 12 14 15 15 15 15 15 14 14 14 14 13 13 15 15 15 16 15 14 14 13 14 14 14 14 14
5 5 7 7 9 7 2 2 1 2 3 1 2 1 2 1 0 3 6 4 2 4 9 11 16 16 6 4 6 2 4 4 3 4 6 12 16 17 18 15 14 15 14 14 14 13 13 11 10 10 8 7 8 10 10 11 10 9 9 8 8 7 4 1 3 5 7 11 12 12 12 12 14 15 15 15 14 14 14 14 14 13 13 14 15 15 15 14 13 13 12 12 13 13 13 14 13
5 6 6 7 8 6 1 3 1 1 2 2 3 2 1 1 4 5 6 4 5 11 12 14 14 12 5 4 4 2 3 4 4 6 11 16 16 17 16 14 15 15 14 14 13 13 12 11 10 10 8 7 7 9 11 12 11 10 9 9 8 6 3 2 7 9 9 11 12 12 12 13 13 13 14 14 14 14 14 13 13 13 13 14 14 14 13 13 12 12 11 12 12 12 13 13 13
5 7 6 7 6 3 3 3 1 2 2 2 2 3 3 4 6 4 4 8 13 15 12 12 9 7 6 2 3 2 3 6 6 7 12 16 14 15 14 14 16 16 16 14 13 12 11 10 9 9 8 7 7 8 10 11 11 10 9 8 6 4 2 6 9 10 10 10 10 11 12 12 12 12 14 15 14 14 13 13 13 13 14 14 13 13 12 12 11 11 10 11 11 11 12 12 13
6 7 6 7 4 0 3 2 1 2 3 3 0 3 4 5 6 3 8 14 15 10 8 8 4 5 5 3 4 2 3 7 8 10 14 15 14 14 14 14 16 17 17 15 13 12 11 10 9 9 8 7 7 8 8 9 9 10 9 7 6 4 4 8 9 10 10 9 8 10 11 10 10 10 13 14 14 13 12 12 12 13 13 13 12 11 11 10 10 10 9 10 11 11 12 12 13
6 6 6 5 2 2 2 1 1 1 3 4 1 3 4 6 6 7 12 13 8 4 5 5 4 6 4 3 4 5 6 7 9 14 18 17 15 14 14 15 17 18 17 15 13 12 11 10 10 9 7 6 6 6 6 7 9 9 8 6 7 5 5 8 10 11 11 9 7 8 9 9 10 10 12 13 13 12 11 11 12 12 12 12 11 10 9 9 9 9 9 10 10 11 12 12 12
5 5 5 3 3 2 2 2 2 2 3 3 2 3 3 7 10 12 11 9 4 3 3 3 6 6 3 4 5 7 8 7 10 15 20 18 17 15 14 16 18 19 17 15 14 13 12 11 10 8 7 5 5 5 6 7 9 9 8 7 8 7 6 9 11 11 11 10 7 5 6 8 10 10 12 12 11 11 10 11 11 11 11 10 9 9 8 8 8 8 8 9 10 11 11 11 12
3 4 3 1 1 3 2 2 2 2 2 2 3 3 3 10 15 14 9 6 3 4 6 5 8 5 2 5 5 9 9 9 12 17 20 18 18 16 15 16 18 19 18 16 15 14 13 12 10 8 6 4 4 4 4 7 9 9 9 9 9 8 7 9 11 11 11 10 7 6 7 8 10 10 11 11 10 10 10 10 10 10 10 9 8 7 7 7 7 7 8 8 9 10 11 12 12
3 3 2 1 1 2 1 1 2 3 3 3 4 4 5 13 15 12 8 4 3 5 7 8 8 3 4 6 5 9 10 10 13 18 20 18 18 16 14 16 16 19 19 17 16 15 14 13 11 8 6 4 4 3 3 5 8 10 10 10 9 8 8 8 10 12 12 10 8 7 8 9 10 10 11 10 10 9 9 9 8 8 8 8 7 7 6 6 7 7 8 8 9 10 12 12 13
3 2 1 2 1 0 2 1 2 2 3 4 4 5 8 15 14 10 8 4 3 5 8 10 6 3 6 6 5 9 11 11 14 19 20 17 17 16 15 15 15 17 18 18 16 15 14 13 11 9 7 5 4 3 3 3 5 9 10 10 8 8 9 8 10 12 11 10 9 7 7 9 10 10 10 10 9 8 8 8 7 7 7 6 6 6 6 6 6 7 8 9 10 11 11 12 12
3 1 3 2 1 1 2 2 3 3 3 3 4 5 11 16 13 8 6 3 4 5 9 11 4 6 8 4 7 9 11 11 13 19 21 18 16 14 15 15 15 17 17 17 16 15 15 13 12 10 8 6 5 5 4 4 4 6 8 8 8 8 8 8 9 10 10 10 10 8 7 9 10 10 10 9 8 8 7 7 6 6 5 5 5 5 5 5 6 7 7 8 9 10 10 10 11
4 1 3 2 2 2 3 2 3 4 4 2 2 7 12 16 12 7 7 5 7 7 9 12 4 6 6 2 8 10 11 11 12 19 20 17 15 13 14 14 16 17 17 17 16 15 15 14 12 11 9 7 7 7 6 5 5 6 7 7 8 8 8 8 8 9 10 10 10 9 8 8 10 10 10 9 8 7 6 6 5 5 4 4 4 4 4 4 5 6 6 7 7 8 9 10 11
6 2 4 1 2 2 2 1 3 3 4 2 4 8 13 16 12 10 11 7 8 7 8 13 6 5 5 1 8 12 12 12 14 18 18 16 15 12 12 13 16 17 17 17 16 15 14 13 13 12 11 9 8 8 7 6 6 7 7 7 8 7 7 7 7 8 9 11 10 10 9 8 9 10 10 9 8 7 6 5 4 4 3 3 3 3 3 3 4 4 5 6 6 7 9 10 12
7 5 4 1 1 1 3 1 2 1 3 3 5 12 15 13 11 12 11 7 10 10 7 13 9 4 5 3 6 14 15 14 16 18 18 16 13 13 11 12 15 17 17 17 16 15 15 13 12 12 12 11 9 9 8 7 6 6 6 7 8 7 6 7 6 6 8 10 9 9 8 8 8 10 10 9 8 7 6 5 4 3 3 2 1 2 2 2 3 4 5 5 6 8 9 10 11
8 6 4 2 2 0 3 1 2 4 4 4 7 14 16 10 9 12 12 8 10 12 8 11 12 4 4 5 4 12 17 15 17 18 18 16 14 13 12 11 13 16 18 17 16 15 15 13 12 13 12 12 11 10 9 8 7 6 6 6 7 6 5 6 5 5 7 8 8 8 8 8 8 9 10 9 9 8 7 6 4 4 3 2 1 1 2 2 3 4 5 6 6 7 8 9 11
10 7 4 1 2 2 4 2 2 2 4 5 9 14 12 8 10 9 11 10 8 11 10 10 15 8 4 7 4 8 17 17 17 18 18 17 16 15 14 13 13 15 17 18 17 16 16 13 12 12 12 13 12 12 11 9 9 8 7 6 6 6 6 6 5 6 7 7 8 8 8 8 9 9 10 9 9 8 7 7 6 5 3 2 1 1 1 2 3 4 4 5 5 6 7 8 10
10 6 2 1 4 3 4 4 3 3 4 5 10 15 10 5 10 8 8 11 8 11 13 11 15 14 6 7 6 6 14 18 18 19 19 19 19 18 17 16 15 16 16 18 19 17 17 15 11 10 11 13 13 13 12 11 10 9 8 7 7 6 6 7 6 7 7 7 7 7 8 8 9 9 10 9 9 9 8 7 7 6 5 4 3 2 1 2 3 3 3 4 4 5 7 8 9
9 4 2 4 3 4 5 7 7 4 2 7 13 18 14 6 11 10 6 9 9 10 14 13 14 17 12 8 7 6 11 18 20 20 21 22 22 22 21 20 19 19 17 18 19 19 18 17 13 10 10 11 13 13 12 12 11 10 9 8 7 6 6 7 7 7 7 7 7 8 8 8 9 9 10 10 10 9 9 8 7 7 6 5 4 3 2 2 2 3 3 4 4 5 7 8 10
7 3 2 5 4 5 7 10 10 5 2 9 14 17 16 9 13 14 6 6 9 7 12 14 14 18 17 13 10 8 10 16 20 22 23 24 24 24 24 23 23 21 20 19 20 22 20 18 16 11 10 11 12 13 12 11 11 10 9 8 8 7 6 6 7 7 7 7 8 8 8 9 9 9 10 10 10 9 9 8 8 8 7 6 5 4 4 3 3 3 4 4 5 6 8 9 11
5 3 3 6 6 4 7 11 12 10 4 7 13 14 14 11 13 14 8 6 7 8 12 14 16 19 20 18 14 11 11 14 19 22 23 24 25 25 25 25 25 24 23 20 19 24 23 19 17 13 10 10 11 12 12 12 11 10 9 8 8 7 7 6 6 7 7 8 8 9 9 9 10 9 10 10 9 10 9 9 8 8 8 7 6 6 5 4 3 3 4 5 6 7 9 10 11
5 5 4 4 7 4 7 12 11 11 7 7 12 11 10 11 14 15 11 6 4 13 19 19 19 17 18 20 18 15 15 15 18 22 23 24 24 25 25 25 24 23 22 21 20 24 24 20 18 14 12 11 10 10 10 11 11 10 10 9 9 9 8 7 7 7 8 8 9 9 10 10 10 10 10 10 10 10 9 9 9 9 9 9 8 7 6 5 4 4 4 5 6 7 9 10 11
6 7 6 4 10 4 6 11 10 11 9 8 12 9 10 13 13 16 16 8 7 15 19 19 18 15 14 17 17 18 18 17 19 21 23 24 25 24 25 24 23 22 20 21 21 22 21 20 19 15 13 12 10 9 9 10 11 11 11 10 10 10 9 8 7 8 8 9 9 10 10 11 11 10 10 10 10 10 10 10 10 10 10 10 9 8 7 6 5 5 5 5 6 7 8 10 11
5 7 6 7 10 5 5 10 9 12 11 11 13 10 12 13 10 16 19 17 15 11 11 10 11 13 14 15 15 17 18 19 19 20 21 23 24 24 24 24 23 22 21 21 22 21 20 20 20 17 15 14 12 10 10 11 12 12 12 12 12 11 10 9 8 8 9 10 10 10 10 11 11 11 11 11 10 10 11 11 11 11 11 11 10 9 8 7 6 6 5 6 6 7 8 10 12
6 4 6 9 10 6 6 9 8 10 11 12 14 10 12 14 9 11 20 25 19 10 8 7 5 8 14 17 16 16 16 18 18 19 20 22 23 23 23 22 22 22 22 22 23 22 21 20 21 20 17 15 14 12 12 13 13 13 13 13 12 12 11 10 9 9 10 11 11 11 11 11 11 11 12 11 11 11 11 12 12 12 12 11 11 10 9 8 7 7 6 7 7 7 8 10 12
6 4 5 8 8 6 7 8 8 9 9 9 12 11 12 17 10 8 20 25 21 17 14 12 9 8 12 17 18 16 15 17 17 19 20 22 22 22 23 22 22 22 23 24 23 23 22 20 21 20 18 17 15 14 14 14 14 14 14 14 13 12 12 12 11 11 12 12 12 12 12 11 12 12 12 12 12 12 12 12 13 13 12 12 11 10 9 9 8 8 7 7 8 8 9 11 12
9 8 6 8 7 7 8 9 8 8 9 10 11 8 9 14 9 8 21 23 18 20 20 19 17 14 13 16 19 18 16 16 17 18 19 21 23 24 24 23 23 23 24 23 22 22 23 22 21 19 18 17 16 16 16 15 15 15 14 15 14 13 13 13 14 13 13 13 12 12 12 13 13 13 13 13 13 13 13 13 13 13 13 12 12 11 10 10 9 9 8 8 9 9 10 11 12
10 11 8 9 7 7 9 9 9 8 8 11 10 7 6 10 7 6 15 18 17 18 18 19 19 18 16 15 18 19 17 16 16 17 19 21 23 25 25 24 24 23 23 23 22 22 23 24 22 19 18 17 16 16 16 16 16 16 16 16 15 14 15 15 15 15 15 14 13 13 14 14 14 14 14 14 14 14 15 14 14 14 13 13 13 12 11 11 10 10 9 9 9 9 10 11 12
10 14 8 4 4 4 7 7 8 7 5 9 8 4 4 6 6 8 10 10 13 17 17 18 18 18 18 17 17 18 17 16 16 18 19 20 20 22 23 24 24 22 23 23 22 22 23 24 22 20 20 18 17 16 16 16 16 17 17 17 16 15 15 15 16 16 16 16 16 16 15 15 15 15 15 15 15 15 15 15 15 15 13 13 13 13 13 12 11 11 10 10 10 10 10 11 12
10 14 6 1 2 1 6 7 7 7 3 6 5 2 5 6 6 13 15 12 10 12 15 17 19 19 19 19 18 18 18 17 18 20 18 17 17 19 20 21 21 21 22 22 21 22 23 24 22 21 21 19 18 17 16 15 16 16 16 16 16 16 16 16 16 16 16 17 18 18 17 16 16 16 16 16 16 16 16 16 16 15 14 14 15 14 14 13 12 11 11 11 10 10 10 11 12
8 7 4 2 2 3 6 7 6 7 4 7 7 3 8 7 11 17 19 19 16 14 15 17 18 19 20 21 22 22 21 21 21 20 18 18 17 18 19 19 20 21 20 20 21 23 24 24 24 22 21 20 18 17 17 16 16 16 16 16 16 17 17 17 17 17 17 18 19 19 19 18 17 16 16 16 17 17 17 17 16 15 15 15 16 15 14 14 14 12 12 12 11 11 11 11 12
6 3 2 3 3 4 5 5 9 6 4 9 8 5 7 3 11 21 22 22 20 19 20 20 20 20 20 21 23 25 24 25 24 22 20 20 20 20 19 19 20 21 21 21 22 23 24 25 25 25 24 22 20 19 19 18 17 17 16 16 16 17 18 18 18 18 18 18 19 20 20 20 19 17 17 17 18 19 19 18 16 15 15 16 16 16 15 15 14 13 12 13 12 12 12 12 13
2 3 2 1 3 4 5 4 12 7 4 9 7 4 6 2 7 16 21 23 22 23 24 24 24 23 23 23 24 26 26 27 26 25 24 22 22 22 21 20 20 21 22 22 23 24 25 26 27 27 26 25 23 22 21 20 19 19 18 17 17 17 18 19 19 19 19 20 20 20 20 20 19 18 18 19 19 20 20 19 17 15 15 16 16 16 16 16 15 14 14 14 13 13 13 13 13
1 4 4 2 4 3 3 3 10 8 3 6 7 4 3 2 7 11 14 19 19 22 24 25 27 27 28 27 28 28 28 28 28 27 26 25 24 23 22 21 21 21 21 22 23 24 25 26 28 29 29 27 26 24 23 22 22 21 20 19 19 20 20 19 19 20 21 21 21 21 20 20 19 19 19 20 20 20 20 20 18 16 16 17 17 18 17 17 16 16 15 14 15 14 14 14 14
2 2 3 2 4 4 2 3 6 7 3 4 7 8 7 3 5 7 9 12 13 18 23 26 28 29 30 30 30 31 30 31 30 28 26 26 25 24 24 23 22 22 21 22 23 24 25 26 28 29 30 29 28 27 25 24 23 23 22 22 22 22 22 21 21 22 22 22 23 22 21 20 19 19 19 20 21 21 20 20 18 17 18 18 19 19 18 18 17 17 16 15 16 16 16 15 16
6 5 4 2 2 4 5 3 4 6 4 5 5 9 12 6 5 6 7 8 11 16 20 22 25 26 28 29 30 31 32 34 33 28 26 26 25 24 24 24 24 24 23 23 23 24 26 27 29 30 30 30 30 28 27 26 26 26 26 26 26 26 25 24 24 24 24 23 23 21 20 20 19 19 20 20 21 21 20 20 19 19 19 20 20 20 19 19 18 18 17 16 17 18 18 17 18
10 8 6 4 4 3 4 4 4 7 4 5 7 11 14 9 8 13 16 14 13 17 19 20 23 24 24 24 27 29 32 35 34 30 28 27 26 24 24 24 25 26 25 25 25 26 27 28 29 31 31 32 31 30 30 29 30 30 30 29 30 30 28 27 26 26 24 24 23 21 20 20 19 20 20 21 21 21 20 20 19 19 21 21 21 21 20 19 19 19 19 18 18 20 19 19 19
10 8 6 6 5 4 4 3 3 5 5 5 9 12 15 11 9 14 20 17 14 18 21 24 26 26 27 27 29 31 32 32 29 29 31 30 29 27 26 26 26 27 28 28 28 28 28 29 30 31 32 32 32 32 32 32 33 33 33 32 32 31 30 29 28 27 25 24 22 21 21 20 20 21 20 20 21 21 20 20 20 20 21 22 22 22 21 20 20 20 20 20 20 21 21 20 21
10 8 6 6 6 4 4 3 3 3 4 4 5 8 16 13 10 14 13 11 16 22 23 26 29 30 33 34 36 37 34 31 26 26 28 28 30 31 30 30 29 29 29 29 30 30 29 29 31 32 31 32 33 33 34 34 34 34 33 32 31 30 29 29 28 26 25 25 24 23 22 22 22 22 21 21 20 21 21 20 20 20 21 22 23 23 22 22 22 21 22 22 22 23 23 22 23
8 6 6 6 5 1 2 2 2 2 4 3 2 4 14 12 8 12 13 15 24 29 28 30 32 32 35 37 38 38 36 34 31 29 28 26 27 29 32 33 32 31 30 30 30 30 30 31 32 32 32 33 34 34 35 35 35 34 33 32 31 30 29 28 27 27 27 28 28 27 26 25 25 24 22 22 21 21 20 20 20 20 21 22 23 24 24 23 23 22 23 23 23 25 25 25 25
6 6 7 4 5 4 2 2 1 1 2 1 1 4 11 11 6 9 17 25 31 32 31 32 34 34 37 37 36 36 35 35 35 35 33 30 28 28 31 34 34 33 33 33 32 31 32 33 33 33 33 33 33 34 35 35 35 33 33 32 31 31 31 30 30 30 31 31 30 29 29 28 27 26 24 23 23 22 21 21 21 21 22 22 24 24 25 24 24 24 24 25 25 27 27 27 26
4 6 7 4 5 5 2 1 1 1 2 1 0 5 8 9 8 8 13 21 26 29 27 28 34 38 39 38 37 37 37 36 35 36 35 32 30 30 31 32 33 35 37 37 35 32 32 33 33 33 32 33 33 34 34 34 35 34 34 34 34 35 36 35 35 34 34 33 31 29 28 27 27 26 25 25 25 24 24 23 23 23 23 23 25 25 26 26 26 26 26 27 28 28 29 29 29
4 5 6 8 8 5 5 4 3 3 2 1 1 4 5 4 6 8 6 6 15 19 18 25 34 38 37 37 39 41 39 37 36 36 35 32 31 32 32 31 33 36 38 39 36 33 33 33 33 33 33 33 33 34 34 34 35 35 35 36 37 38 38 37 36 35 33 31 29 27 26 26 26 26 26 26 26 26 26 26 26 26 26 26 27 27 28 29 29 29 28 29 30 30 30 31 32
4 5 6 8 9 8 7 5 3 1 3 1 2 3 5 5 6 7 3 3 11 10 8 20 31 33 33 35 40 42 40 39 38 37 36 33 32 33 34 34 34 36 37 38 38 36 34 33 33 34 35 35 34 34 34 34 35 35 35 36 37 37 38 36 34 33 31 28 27 26 27 27 27 27 27 27 27 27 27 27 28 28 28 29 29 30 31 31 31 31 31 32 32 32 32 33 33
4 5 9 9 9 9 8 6 4 3 2 1 2 2 4 8 7 4 2 4 11 11 9 15 22 28 31 33 37 39 41 41 39 39 38 35 34 34 36 36 36 35 34 35 38 38 37 35 34 34 35 36 36 35 35 35 35 35 35 36 36 37 36 35 34 33 31 28 28 28 28 28 27 27 27 27 27 27 27 28 28 28 29 30 30 31 32 32 32 33 33 33 34 33 33 33 32
3 5 9 9 8 7 6 5 3 1 2 3 2 3 3 8 5 1 1 4 10 15 14 11 16 26 31 32 34 35 36 37 37 39 39 37 36 35 35 36 35 34 32 32 36 38 37 36 35 34 35 36 37 37 37 36 35 35 36 36 37 36 35 34 34 33 31 30 29 29 29 28 28 27 27 27 26 26 26 26 26 27 27 28 28 29 30 30 31 31 32 32 32 33 32 31 31
4 6 9 7 5 5 4 3 4 3 2 6 4 5 4 8 6 3 2 3 11 14 9 8 15 24 28 29 30 30 29 31 32 35 38 38 37 35 35 35 35 34 33 32 32 34 36 36 35 36 36 36 36 37 37 37 36 36 37 38 37 36 35 34 34 34 32 30 30 29 29 28 27 26 26 25 25 24 24 24 24 24 24 25 25 26 27 27 28 28 28 29 29 30 30 30 30
10 8 9 7 5 4 3 2 4 1 5 5 8 10 6 7 5 5 5 5 8 9 6 7 13 21 24 23 21 19 20 23 26 30 33 36 36 35 35 36 36 35 34 33 33 34 34 35 35 36 36 35 35 36 36 37 37 37 38 37 36 35 34 34 35 34 33 31 30 29 28 27 26 25 25 24 24 23 22 22 22 22 22 23 25 26 26 27 27 27 27 28 29 29 29 29 30
11 5 6 4 3 3 3 3 2 3 5 2 7 11 9 8 5 4 5 4 3 6 6 6 9 14 18 15 10 8 10 15 21 26 29 32 33 32 32 34 36 37 36 35 36 36 37 36 36 35 35 34 34 35 35 36 36 37 36 35 34 33 33 34 34 33 33 31 30 29 28 27 26 25 25 24 23 22 21 20 21 21 22 23 25 26 27 27 28 28 29 29 29 29 29 29 29
8 5 8 5 1 1 2 2 2 5 4 2 3 7 6 10 9 6 9 8 7 9 10 11 11 13 14 11 9 9 10 13 17 23 27 29 31 30 28 30 33 36 38 38 38 38 39 39 39 38 37 35 34 34 35 35 36 35 34 33 32 32 33 33 32 32 31 30 30 29 28 27 26 26 25 24 22 20 19 20 21 22 23 24 25 26 27 28 28 28 29 29 29 29 30 29 28
9 10 10 7 5 4 7 6 3 4 3 2 3 3 2 5 6 10 14 15 16 16 17 18 17 18 20 18 18 20 21 19 17 21 24 24 24 23 23 24 26 29 32 35 37 39 40 41 41 41 40 37 34 34 35 35 35 34 32 32 32 32 32 32 31 31 30 29 29 29 28 27 26 26 25 23 21 20 20 21 22 23 25 26 27 27 28 28 28 28 28 28 29 29 27 26 24
9 8 7 7 6 5 6 5 4 3 1 2 2 2 3 4 2 7 10 12 17 19 19 18 19 21 22 21 23 24 24 23 21 21 21 20 18 17 20 22 23 24 26 28 32 37 40 43 43 43 41 40 38 36 35 35 34 32 31 30 30 30 31 31 30 29 29 29 29 29 28 27 26 25 25 23 22 22 22 22 23 24 25 26 27 28 28 28 27 27 27 27 27 26 25 23 22
6 5 6 7 6 5 3 3 4 3 1 1 3 3 3 3 7 9 8 10 14 17 19 17 19 21 19 20 23 24 24 24 23 24 23 21 19 19 21 23 25 26 27 28 31 34 38 41 43 43 42 41 40 37 35 34 33 31 30 30 29 29 29 29 29 28 29 29 29 28 27 26 26 25 25 24 24 23 22 22 23 24 25 26 27 28 28 28 27 26 26 26 25 23 22 22 22
5 5 7 5 4 6 4 2 1 3 2 3 4 6 4 3 11 13 12 13 12 13 14 14 18 18 15 21 26 26 26 23 21 23 24 24 23 22 22 23 25 27 28 29 30 31 34 36 38 41 41 41 39 37 35 34 33 32 31 30 29 29 29 28 27 27 28 28 27 26 26 26 26 26 26 25 24 24 23 23 24 25 25 26 27 28 28 28 27 27 27 26 25 24 23 22 24
7 8 8 5 3 3 4 1 2 3 4 4 4 9 4 1 7 5 5 13 14 11 7 7 13 15 17 24 27 23 20 16 15 17 20 22 22 21 22 23 24 25 26 27 26 27 29 32 34 36 38 39 37 36 35 34 33 32 31 30 30 30 29 28 28 27 28 27 26 25 25 26 26 26 26 25 25 24 24 25 26 27 27 26 27 27 27 27 27 27 26 24 24 25 24 23 23
4 8 9 7 3 3 3 3 2 2 5 4 2 4 3 8 9 3 1 9 10 8 6 5 9 12 15 18 18 14 12 12 10 10 14 18 19 20 20 21 22 22 23 23 23 24 26 29 31 32 35 35 34 33 33 33 34 33 32 31 31 31 30 30 29 29 30 29 27 25 25 25 25 26 26 26 25 25 25 27 27 28 27 27 27 27 26 27 26 27 26 24 24 24 24 24 23
3 6 7 4 3 5 5 4 3 3 5 5 3 2 4 8 9 6 8 9 8 7 5 5 9 12 14 15 15 13 13 10 6 5 8 10 13 14 14 15 17 17 19 20 21 23 24 26 28 30 32 32 33 32 32 33 34 33 33 32 32 32 32 32 32 31 32 30 27 26 25 25 26 26 27 26 26 26 27 28 28 27 27 27 27 26 25 25 25 26 26 25 23 23 24 26 26
4 8 9 5 3 3 2 3 3 3 4 5 4 5 6 5 6 10 12 11 11 9 6 6 13 20 22 19 17 14 11 10 6 3 6 10 12 11 11 11 11 12 14 16 18 20 22 23 25 27 29 31 32 32 32 32 32 33 33 33 33 33 33 34 33 33 33 31 29 28 26 26 27 27 27 27 27 28 28 29 27 27 27 27 27 26 26 26 25 26 26 24 23 25 27 26 26
7 8 9 9 7 4 3 5 3 2 3 3 3 7 8 3 5 9 11 9 9 8 5 7 16 23 22 19 17 16 13 13 11 8 9 14 15 14 13 12 11 11 12 12 13 15 17 19 21 23 26 28 30 30 30 31 31 32 33 33 34 34 34 34 34 34 33 32 31 29 29 29 29 29 28 28 28 29 29 28 27 27 27 27 27 26 25 25 25 26 25 25 25 27 27 25 26
Wind_Direction
304 311 331 348 351 340 316 347 96 10 69 97 301 202 232 228 161 169 174 170 157 190 181 161 157 156 145 179 203 224 152 167 184 182 179 152 146 153 166 175 174 171 175 170 162 166 164 157 162 161 158 154 158 168 169 165 166 176 183 197 214 236 253 327 356 58 79 90 93 98 102 102 99 98 99 101 103 103 104 103 103 101 98 93 87 83 78 75 73 74 73 72 73 72 70 66 63
309 307 326 342 348 342 294 45 77 334 53 128 253 191 254 328 242 204 185 191 198 165 168 162 156 161 153 148 174 150 146 167 187 177 148 150 152 157 169 177 178 176 178 176 168 170 168 165 170 162 160 161 165 177 183 186 188 196 204 218 237 255 262 296 94 93 87 92 94 100 103 101 100 104 107 107 108 108 108 107 105 104 98 90 83 78 75 73 71 70 71 70 69 68 66 63 61
312 303 318 335 340 346 26 51 54 125 82 198 255 235 205 176 213 220 196 188 140 133 139 148 151 163 157 125 154 160 171 182 173 159 152 155 157 160 169 176 178 181 181 180 175 174 171 171 172 162 165 170 174 184 189 197 202 208 216 228 239 252 246 136 104 93 91 94 94 102 104 100 102 107 113 113 114 113 111 110 107 103 94 85 78 75 73 72 70 66 67 69 67 65 63 61 59
315 303 312 333 333 349 60 51 98 132 151 199 278 241 198 193 211 230 181 140 128 128 131 140 144 165 173 173 178 172 188 191 183 171 161 156 156 163 169 173 176 180 182 182 180 178 175 173 171 170 176 180 185 189 192 198 205 213 219 227 234 243 169 117 106 94 96 99 96 107 108 105 107 107 112 115 115 114 111 109 103 96 88 82 77 75 73 70 68 64 63 65 66 65 62 59 57
313 304 308 328 329 11 87 66 100 125 195 181 240 244 214 203 207 190 147 139 131 123 134 145 134 162 175 187 180 160 173 182 180 174 164 157 161 169 169 170 174 178 181 182 182 183 179 176 177 180 187 192 195 195 193 197 206 214 219 219 227 229 134 114 110 105 108 109 107 110 110 111 115 113 113 114 113 111 107 103 97 92 86 83 78 73 71 68 66 63 61 60 60 60 58 56 55
307 302 315 338 52 124 124 139 169 200 224 168 165 254 220 203 188 153 149 151 148 114 135 154 143 150 161 175 173 154 152 163 174 173 167 164 164 169 171 169 172 176 180 181 183 187 182 180 184 188 196 199 202 206 202 203 210 213 213 213 217 208 137 119 116 117 118 119 123 115 112 118 121 119 114 112 110 107 104 100 96 92 88 85 81 76 73 69 66 63 59 56 53 53 54 52 52
301 291 319 6 82 56 117 178 206 226 224 172 181 248 224 192 167 147 152 167 199 242 185 184 165 150 151 164 159 156 155 159 168 170 168 168 166 167 171 169 171 176 178 182 184 188 187 185 187 192 200 200 205 216 215 210 212 210 206 206 202 186 143 127 123 125 126 127 135 124 122 130 128 122 115 111 110 109 106 102 99 95 92 89 85 80 76 71 66 63 57 55 52 50 50 47 45
299 293 328 66 52 24 91 170 234 213 212 231 238 254 223 175 162 152 160 179 201 219 197 183 170 164 178 164 159 165 161 161 166 169 171 173 169 167 171 169 172 176 178 183 185 189 190 189 191 197 202 202 210 215 214 209 208 205 200 197 187 170 147 131 128 133 134 135 141 130 131 137 133 126 118 115 113 113 110 106 103 98 96 92 88 80 74 70 65 61 55 53 50 47 45 40 37
299 297 330 84 95 34 53 301 258 242 250 256 250 251 194 166 163 159 166 190 193 190 189 175 169 185 188 169 165 173 168 166 171 171 173 177 173 167 168 170 174 176 179 182 186 189 190 194 195 199 204 204 211 208 200 200 199 194 191 190 175 156 146 132 131 139 142 146 150 140 139 142 137 131 124 121 120 119 114 110 105 100 99 95 91 83 73 66 60 57 50 45 43 42 41 35 30
297 306 103 81 128 30 328 270 241 260 249 247 256 228 174 166 165 165 168 193 196 181 183 174 178 193 176 177 168 175 175 170 176 175 173 178 177 170 168 169 174 179 181 182 186 189 189 194 195 196 200 202 200 194 183 184 189 181 182 184 165 149 145 138 136 139 145 149 149 143 145 147 142 138 131 127 127 122 117 113 108 104 101 98 94 85 75 65 59 53 47 41 37 37 36 33 28
270 344 113 82 87 203 235 238 254 268 268 280 268 198 171 170 163 160 166 190 190 173 175 175 204 183 168 196 180 179 181 172 179 179 174 177 181 175 170 167 173 182 184 185 187 190 191 192 193 195 194 193 190 186 185 182 186 182 183 176 156 150 148 148 147 144 147 147 145 143 148 152 148 143 138 134 131 127 124 119 116 113 107 103 94 86 76 68 61 54 48 41 36 33 31 29 26
235 9 91 99 160 207 209 213 257 274 304 306 194 178 172 172 165 168 177 185 181 168 183 183 202 180 167 243 190 186 182 171 175 180 178 177 182 179 174 171 171 182 187 189 191 193 195 192 191 195 191 189 188 184 187 188 192 198 194 170 152 152 154 158 157 155 156 149 149 150 150 153 150 145 142 140 136 135 133 127 124 121 116 108 95 85 74 67 64 59 54 45 38 32 27 23 20
215 157 106 156 188 173 170 190 271 298 310 244 178 175 171 174 180 190 182 180 177 165 197 195 201 194 184 233 192 193 184 174 169 175 181 180 181 179 177 175 173 179 188 193 196 199 200 194 192 195 194 191 191 186 187 191 195 200 193 172 159 156 159 170 169 167 165 156 158 161 158 153 148 148 148 147 145 144 142 137 133 130 127 115 94 75 63 60 59 57 53 46 38 30 24 20 16
211 175 144 184 152 128 159 171 274 214 256 237 170 170 170 180 195 197 181 173 189 185 199 200 201 204 202 215 201 197 185 179 174 171 180 183 182 181 181 180 177 179 186 196 199 204 206 201 195 196 199 195 195 193 191 194 199 199 191 176 165 164 164 174 177 164 162 162 162 165 165 159 150 152 153 154 153 153 154 149 146 151 146 127 92 52 40 36 40 41 40 36 29 25 22 17 13
206 176 128 129 109 193 190 191 212 175 237 212 164 172 172 184 195 198 195 190 202 197 190 193 195 199 213 201 197 198 190 183 178 174 177 181 183 185 186 183 185 183 186 196 198 205 211 210 202 199 202 200 200 198 199 199 201 200 195 187 169 170 169 170 172 153 155 163 162 162 163 162 157 158 160 162 164 164 165 164 167 172 169 161 128 29 9 5 19 26 27 26 20 18 16 12 9
200 176 89 119 172 213 200 185 147 153 249 196 164 173 172 189 187 191 208 205 203 197 193 191 194 204 222 196 178 187 192 191 183 178 178 182 187 190 191 188 191 190 189 194 197 205 210 213 210 205 205 206 206 203 202 203 203 201 197 197 177 175 179 173 172 162 161 165 164 165 161 163 166 166 169 171 173 175 176 176 180 185 188 193 211 265 333 346 359 12 17 17 13 10 7 6 6
190 173 99 209 191 202 190 179 177 172 241 205 175 178 169 179 186 187 206 204 203 201 203 202 204 209 210 194 190 179 188 195 191 184 183 186 191 192 194 194 195 197 197 196 198 206 206 210 218 212 211 212 213 210 206 204 205 204 200 202 192 185 188 184 180 174 171 171 173 174 170 172 175 177 179 182 183 185 187 187 190 196 198 205 220 238 285 327 343 358 2 2 360 359 360 0 2
183 148 181 222 183 190 182 181 194 168 204 199 187 184 177 174 180 179 182 196 206 208 208 209 212 211 208 197 195 195 191 197 200 195 192 194 197 198 199 199 199 201 204 200 198 207 207 205 215 213 212 219 218 218 213 209 209 207 204 205 204 199 197 194 187 184 180 180 183 186 186 185 183 186 189 192 194 195 197 196 200 206 210 214 221 232 254 285 312 328 335 344 345 346 352 354 358
184 113 193 226 186 194 192 187 191 180 198 188 187 187 187 193 178 176 180 191 192 201 212 213 216 214 213 211 204 209 203 201 206 205 203 203 204 205 205 203 203 203 206 206 196 205 212 204 210 210 207 220 222 224 223 218 216 214 213 211 214 212 210 207 196 192 190 190 193 196 199 197 195 194 197 200 203 204 205 205 207 215 222 225 227 233 243 260 283 308 322 329 333 339 345 351 355
197 154 208 238 201 210 209 199 198 201 205 172 185 190 192 201 182 179 185 177 184 206 213 211 219 221 217 218 217 220 219 209 209 212 212 212 213 212 211 209 209 206 205 210 199 205 215 207 207 210 206 216 224 230 232 228 225 221 222 220 222 224 222 223 211 204 202 201 201 202 205 206 206 204 205 207 210 212 213 214 215 220 226 230 234 239 247 259 274 296 312 320 328 335 341 347 352
184 178 217 223 183 203 218 207 206 209 213 187 181 178 193 199 185 184 173 152 216 227 223 221 226 228 219 220 223 225 226 219 213 215 217 218 219 218 219 217 217 215 209 211 206 208 217 208 203 207 206 210 216 228 233 234 234 229 228 228 229 231 231 232 226 218 213 213 211 210 211 211 213 213 214 214 217 220 220 221 222 225 229 230 235 241 250 259 271 286 300 312 324 332 337 343 348
172 210 232 181 165 178 220 205 204 208 205 185 170 169 193 186 186 193 179 178 226 228 229 233 238 239 228 226 228 229 229 226 220 219 221 222 223 222 223 222 221 222 218 217 215 216 223 213 204 206 207 207 207 217 223 227 232 233 232 232 234 236 237 239 238 232 225 223 221 220 218 217 218 220 222 222 224 225 225 227 227 230 232 233 237 241 248 258 271 282 294 306 317 327 333 338 342
185 226 227 187 179 180 209 199 201 206 194 181 179 185 185 171 192 202 195 210 223 229 232 229 240 239 232 233 235 235 233 231 228 227 229 228 228 226 225 225 224 224 222 222 221 222 228 222 211 208 208 208 205 207 214 218 223 228 230 231 235 238 240 241 242 240 234 230 228 228 228 224 224 225 227 228 229 230 231 232 232 234 235 236 239 243 250 258 270 280 290 302 312 323 329 332 335
200 225 212 196 195 188 191 193 196 201 201 199 189 185 182 179 194 202 210 222 221 222 217 199 223 235 229 230 235 241 240 239 239 238 237 235 234 232 230 230 229 228 224 223 221 220 226 229 222 214 210 211 208 205 211 217 219 222 226 230 234 238 242 242 242 241 238 235 230 229 232 232 229 228 230 231 233 234 235 235 235 236 237 238 241 245 253 259 268 277 286 297 306 316 323 327 331
214 217 197 182 190 192 184 187 191 194 204 202 185 185 194 195 194 204 222 226 221 223 224 222 240 249 236 230 232 239 239 240 242 239 237 236 236 235 234 234 232 231 228 224 222 219 221 229 231 224 216 214 211 208 211 214 218 220 223 228 232 235 240 242 241 241 241 239 235 232 233 235 235 234 233 233 234 235 236 237 237 237 237 239 242 246 252 258 266 273 282 293 300 312 321 325 329
214 202 180 166 177 185 180 182 183 187 192 181 179 197 205 199 201 236 235 232 228 230 234 239 246 250 243 235 232 235 238 240 240 237 235 234 234 234 234 233 233 233 231 228 223 219 218 224 231 231 225 222 218 214 214 213 215 218 221 227 232 235 238 240 240 241 242 243 241 238 236 235 237 237 236 235 235 235 236 237 237 237 238 239 243 246 249 255 262 271 279 289 297 309 319 323 327
199 185 161 157 165 172 180 186 179 173 182 182 184 206 208 191 192 241 239 234 232 231 235 239 242 244 241 239 234 233 239 241 240 237 234 233 233 233 233 232 232 231 231 229 223 219 218 221 227 230 229 228 225 221 221 219 218 217 220 226 230 234 237 237 238 240 243 245 245 243 240 237 235 237 237 237 236 236 238 238 239 239 240 241 242 244 248 252 258 267 276 285 296 306 314 318 320
180 167 143 143 141 157 184 182 179 171 177 194 192 216 212 177 193 229 225 222 229 228 232 235 236 239 238 239 235 234 237 238 239 236 234 234 234 234 234 232 230 229 228 225 221 218 218 220 222 226 227 226 224 223 224 224 224 222 223 226 228 232 234 234 236 240 243 246 247 245 244 241 238 237 238 239 239 239 241 241 241 242 242 242 244 244 247 251 256 263 272 280 290 299 307 311 313
166 162 151 33 35 322 206 182 186 186 186 191 174 274 242 200 210 228 226 225 225 221 227 232 235 237 237 238 236 236 239 236 236 235 236 238 238 239 237 237 234 231 229 226 223 220 217 218 220 225 227 227 224 222 223 224 226 227 227 227 228 231 232 234 237 240 244 246 247 247 246 244 242 241 240 241 241 242 242 243 244 245 244 244 246 247 249 254 257 262 269 276 284 291 299 304 306
149 155 148 126 45 293 222 187 178 179 187 170 154 249 242 216 218 223 230 232 229 224 225 229 233 236 236 238 239 240 241 239 240 241 240 240 239 241 239 239 238 236 233 228 224 220 217 216 218 223 226 227 225 223 223 223 225 227 228 229 230 233 234 237 239 241 244 246 247 248 248 246 245 243 243 243 242 243 243 244 247 247 246 247 247 250 252 255 259 263 268 273 279 286 293 298 300
138 130 144 155 168 256 253 191 164 165 199 170 151 247 249 229 222 223 230 233 231 232 232 233 235 237 237 239 240 242 244 243 246 248 245 243 241 242 241 239 238 237 234 229 223 221 220 218 218 220 223 224 224 224 224 223 225 227 228 230 233 236 239 240 241 243 244 246 248 248 248 247 245 244 243 243 243 243 243 244 247 249 248 247 248 250 253 256 261 265 267 271 276 282 289 294 296
138 160 182 176 185 250 301 201 177 179 196 175 159 249 257 252 212 212 224 229 230 234 236 239 239 241 242 242 243 244 246 246 247 249 247 244 241 241 242 241 240 238 234 230 227 226 224 222 220 221 222 223 222 223 225 225 227 228 229 232 234 239 241 243 244 244 245 245 247 247 247 246 245 244 243 242 243 243 244 244 246 248 247 246 247 249 251 255 259 263 265 268 274 279 284 289 294
237 197 169 154 186 218 314 234 209 200 150 185 206 251 259 236 215 206 220 226 227 233 237 240 240 243 243 244 247 246 247 246 246 247 246 245 242 241 240 240 241 241 238 235 232 230 226 223 223 223 224 225 225 225 226 228 230 231 232 234 237 239 241 244 245 244 244 244 245 246 246 247 246 244 243 243 244 244 245 245 244 245 246 245 245 247 250 254 256 260 263 267 272 276 280 286 291
192 181 148 157 181 187 228 273 240 204 171 209 218 243 234 199 223 212 217 226 227 233 240 243 243 244 244 245 247 247 248 247 246 247 247 247 245 243 241 240 239 241 241 238 235 232 229 228 227 227 228 228 229 229 229 231 233 235 235 236 238 239 241 242 243 242 242 242 243 245 247 249 249 248 247 245 245 245 244 244 242 241 243 244 244 247 250 252 255 259 263 266 270 274 278 283 288
164 166 153 149 182 189 200 233 229 180 198 227 203 245 243 230 259 243 225 224 225 234 242 248 249 249 249 250 251 252 252 250 247 246 248 248 246 244 243 242 239 238 239 238 237 235 231 230 229 229 230 230 231 232 232 234 235 236 236 236 237 238 239 240 241 242 242 243 244 246 248 250 252 252 251 249 247 245 243 242 240 239 241 243 244 247 250 253 256 260 263 266 268 272 277 282 286
156 163 157 164 192 215 209 234 235 167 167 232 214 242 247 236 249 252 247 244 238 241 247 248 250 251 251 253 255 256 255 253 251 247 247 247 245 245 245 245 242 239 238 237 237 236 233 231 230 229 228 229 230 231 232 233 234 236 236 236 236 236 238 240 242 244 244 246 247 249 250 251 253 252 252 251 250 249 246 244 242 240 241 243 245 248 252 255 257 260 262 264 266 270 275 280 285
145 149 163 178 193 227 227 240 254 170 159 235 225 241 254 241 236 246 247 251 250 244 247 248 248 250 251 252 255 255 255 255 255 249 246 247 247 248 248 246 244 241 238 236 235 235 233 232 231 230 229 229 229 230 231 232 233 235 236 237 238 239 241 243 246 248 250 252 252 252 252 252 253 253 253 253 252 252 250 248 246 244 245 246 248 251 254 255 255 257 260 263 266 270 275 279 282
146 153 169 188 202 227 222 211 258 181 166 252 243 253 262 252 244 251 248 251 252 242 241 247 249 252 253 254 255 256 255 254 252 247 243 246 248 247 247 245 244 242 239 236 236 235 234 234 233 232 231 230 230 230 231 232 234 235 238 240 243 244 246 248 251 253 256 256 255 253 252 252 253 253 254 255 254 254 253 253 251 249 249 249 251 252 253 253 254 256 259 263 267 270 274 277 277
159 161 165 193 200 218 281 282 306 161 171 264 343 282 267 261 242 246 239 236 250 248 242 246 248 249 252 253 255 257 257 252 247 245 244 249 251 248 246 244 243 242 241 240 238 237 236 235 235 234 232 232 231 231 232 234 235 236 239 242 245 248 249 251 253 253 254 253 251 251 250 250 251 252 254 255 256 256 255 255 255 253 252 252 254 254 254 255 256 257 259 263 267 270 273 275 277
171 161 162 195 186 169 253 278 287 145 167 219 12 305 279 273 247 239 235 234 248 253 248 249 249 247 250 253 256 258 257 252 248 246 249 253 252 247 245 243 242 241 240 240 238 237 236 235 235 235 234 234 234 234 234 236 237 238 240 243 245 247 249 250 250 249 249 249 248 247 247 248 250 252 253 254 255 255 256 256 256 256 255 256 257 258 258 259 260 260 261 264 266 269 273 276 278
187 177 167 164 177 175 156 161 177 2 8 93 306 299 283 265 250 248 237 232 245 251 246 248 248 248 250 252 253 255 255 254 250 248 249 250 248 245 245 243 242 240 238 238 238 237 237 237 237 237 237 237 237 237 237 238 239 239 239 241 242 244 245 246 246 245 245 247 248 249 251 253 254 255 255 255 255 255 256 256 257 257 257 258 259 261 263 263 263 263 263 266 267 270 274 277 278
201 215 182 156 159 145 113 127 95 39 319 265 162 264 273 269 252 255 254 235 247 246 237 241 244 245 246 245 248 250 252 252 251 249 248 245 245 244 245 243 242 241 239 237 236 237 239 240 240 240 240 240 239 240 239 239 240 240 240 240 242 243 244 246 247 248 249 251 255 258 259 259 258 258 257 256 257 257 258 258 259 259 260 260 260 262 264 264 264 265 266 267 268 270 273 274 274
210 208 161 144 144 131 133 155 133 131 252 246 146 223 269 288 262 248 236 238 255 248 228 240 244 244 243 241 245 247 248 249 248 249 248 244 241 241 242 242 241 242 240 238 236 235 237 239 240 240 240 241 241 241 240 240 240 241 242 243 244 246 248 251 253 255 257 259 261 262 261 260 259 259 258 258 258 258 258 259 260 261 261 262 262 263 264 265 266 267 267 267 268 270 269 269 271
222 176 139 134 137 146 158 158 173 221 279 307 137 149 274 278 265 247 185 224 265 263 243 243 243 244 244 242 246 247 247 248 246 247 247 244 240 238 240 241 241 243 243 239 235 233 235 237 238 239 240 241 241 242 242 241 242 242 244 246 247 248 251 255 257 258 260 260 260 259 259 259 258 257 257 257 257 257 258 258 259 261 262 263 264 265 266 267 267 267 266 266 266 267 266 267 269
234 168 134 135 138 148 153 139 154 37 5 258 206 131 250 272 258 243 115 217 255 257 247 246 243 244 246 245 246 249 249 249 248 247 247 246 242 238 239 241 241 242 243 240 236 234 234 236 238 240 240 240 240 241 243 243 244 245 246 247 248 250 253 256 258 259 260 259 258 258 257 257 256 256 256 255 255 256 257 258 259 260 262 264 265 266 267 266 266 266 265 265 265 264 264 265 264
183 143 98 95 92 93 104 117 116 67 285 232 193 163 227 273 250 181 100 222 245 255 252 246 245 247 249 249 249 250 250 250 248 247 247 247 246 242 242 243 242 240 240 240 238 235 235 235 236 239 240 241 240 240 242 243 244 245 246 247 249 251 254 255 257 258 259 258 257 257 257 256 255 255 254 254 254 254 255 257 259 261 263 264 265 264 264 264 264 264 264 263 262 262 262 262 261
147 122 86 75 49 55 58 56 90 84 262 219 176 175 196 274 261 172 179 216 228 245 252 242 244 246 248 249 252 253 254 253 249 247 246 245 245 245 244 245 244 242 240 239 239 237 236 235 235 237 239 241 242 241 241 243 243 244 246 248 250 253 254 255 257 257 257 258 257 257 257 257 256 255 253 253 252 252 254 257 259 261 262 262 262 263 263 264 264 263 262 261 260 259 260 260 261
147 115 113 101 29 29 30 25 78 219 254 229 174 173 181 236 249 162 208 240 206 220 239 247 252 252 248 242 241 250 262 260 251 247 246 243 242 242 242 243 242 241 240 237 237 237 237 238 238 238 239 239 241 241 241 242 243 245 247 249 251 252 253 254 255 256 257 257 257 257 258 258 256 254 253 252 252 254 257 259 261 261 261 261 262 263 263 264 263 262 260 259 258 258 258 257 257
157 129 139 143 141 187 196 197 213 229 257 335 166 159 186 236 252 252 254 264 245 222 224 237 250 259 263 251 238 257 276 272 256 246 244 242 239 237 239 241 239 238 238 236 236 236 237 239 240 241 240 240 241 242 242 242 243 245 247 250 251 252 253 254 255 256 256 256 256 256 255 255 255 254 254 254 255 259 261 261 262 262 262 263 263 264 264 265 264 262 261 260 258 257 255 255 255
174 158 164 173 161 185 208 203 234 246 261 337 139 143 255 256 268 254 247 252 251 244 240 244 252 261 271 273 271 276 276 269 257 245 241 235 230 231 237 242 240 238 238 237 236 236 236 236 237 239 240 240 242 243 243 242 243 246 249 251 252 253 254 255 256 256 257 257 255 255 255 255 256 256 256 258 261 263 262 262 262 263 263 263 264 264 264 264 264 263 262 260 258 256 255 256 259
188 163 160 178 170 189 205 196 221 227 281 321 171 178 206 185 239 243 239 258 262 260 258 255 257 261 267 271 270 271 268 263 253 238 228 219 220 235 245 244 242 240 239 240 238 236 236 235 234 235 236 237 239 241 242 242 243 246 249 251 252 252 254 255 256 257 257 257 256 256 256 256 257 258 260 263 265 265 264 263 263 262 262 262 262 263 262 262 262 262 262 261 260 260 257 256 260
197 150 155 190 180 157 152 187 195 159 125 254 199 235 219 204 274 267 254 273 273 267 264 259 256 256 257 260 258 258 262 266 255 234 221 222 235 251 253 248 246 241 239 242 242 238 236 234 234 233 233 234 236 238 241 241 242 244 247 249 251 252 253 254 254 254 254 255 256 257 257 258 259 260 262 264 265 266 266 265 263 261 260 259 259 260 260 259 259 258 258 259 261 261 260 261 262
170 163 175 183 141 122 123 232 42 86 230 223 181 238 277 317 283 267 242 247 259 260 256 252 254 256 259 261 261 265 270 270 254 233 225 233 246 251 252 253 247 239 239 244 247 244 238 234 234 233 231 232 233 235 237 238 239 242 245 248 251 253 254 254 254 254 254 256 257 258 258 258 258 259 261 264 266 267 267 265 264 263 260 258 257 257 257 258 259 258 257 259 259 257 257 262 263
152 176 174 133 81 90 103 224 8 53 251 254 197 226 243 210 262 278 221 228 241 253 264 265 260 258 258 261 265 271 276 270 249 235 233 241 247 248 249 249 241 237 241 245 245 242 236 234 235 233 231 231 231 233 235 237 239 242 246 248 251 254 255 255 255 254 256 257 257 258 257 257 258 259 262 263 265 266 266 266 266 264 262 259 259 259 257 257 255 255 257 260 261 259 259 259 258
155 164 160 138 153 193 151 188 215 202 240 273 267 244 225 203 224 277 212 216 226 249 280 280 255 247 252 267 274 270 267 265 252 245 249 247 243 240 240 238 235 238 242 240 237 234 230 231 232 232 231 230 231 233 235 236 239 242 245 248 251 253 254 254 254 254 255 255 256 256 256 257 258 259 261 262 264 265 266 267 265 264 263 262 261 260 257 255 253 254 255 252 252 257 259 257 256
56 124 152 151 166 185 181 181 175 188 231 267 308 307 241 214 213 226 236 239 239 246 254 245 249 258 267 284 287 268 254 252 244 245 246 231 219 218 220 225 230 232 233 230 229 229 230 231 230 229 228 227 228 231 233 235 237 240 243 246 249 251 252 253 253 254 255 255 255 255 256 257 257 259 261 262 263 265 266 266 264 264 265 264 262 258 255 254 254 256 256 250 250 257 258 254 252
143 156 170 185 176 141 170 199 161 152 213 244 267 266 253 225 201 209 220 239 250 246 235 247 270 276 278 281 277 268 251 220 206 237 227 208 205 206 206 212 218 221 225 226 226 228 230 231 230 228 227 227 228 231 233 235 237 240 243 246 248 250 251 252 253 254 255 255 255 255 256 257 257 259 260 262 263 265 265 265 264 265 264 262 260 257 254 253 252 253 253 248 247 251 254 255 253
170 178 174 182 180 129 156 215 198 148 203 200 219 260 266 240 205 210 211 223 239 238 228 254 270 274 281 284 272 267 258 227 229 269 249 218 216 219 216 217 219 222 225 226 228 230 232 233 232 229 228 229 231 233 236 238 240 243 245 247 249 249 250 251 252 253 254 254 254 254 256 257 259 260 261 262 263 264 263 262 263 264 263 260 259 258 254 253 253 252 251 248 245 244 246 251 255